TimePDT,TemperatureF,Dew PointF,Humidity,Sea Level PressureIn,VisibilityMPH,Wind Direction,Wind SpeedMPH,Gust SpeedMPH,PrecipitationIn,Events,Conditions,WindDirDegrees,DateUTC
12:53 AM,52.0,42.1,69,30.07,10.0,Variable,5.8,-,0.00,,Overcast,0,2013-05-24 07:53:00
1:53 AM,52.0,43.0,71,30.07,10.0,Calm,Calm,-,N/A,,Overcast,0,2013-05-24 08:53:00
2:53 AM,51.1,44.1,77,30.07,10.0,Variable,6.9,-,0.00,Rain,Light Rain,0,2013-05-24 09:53:00
3:04 AM,50.0,44.6,82,30.07,10.0,Calm,Calm,-,0.00,,Overcast,0,2013-05-24 10:04:00
3:37 AM,50.0,44.6,82,30.07,10.0,NE,3.5,-,0.00,,Overcast,40,2013-05-24 10:37:00
3:53 AM,50.0,45.0,83,30.08,10.0,North,3.5,-,0.00,,Overcast,350,2013-05-24 10:53:00
4:30 AM,50.0,42.8,76,30.08,10.0,NW,4.6,-,N/A,,Overcast,320,2013-05-24 11:30:00
4:53 AM,48.9,43.0,80,30.09,10.0,West,4.6,-,N/A,,Overcast,270,2013-05-24 11:53:00
5:08 AM,48.2,42.8,82,30.08,10.0,Calm,Calm,-,N/A,,Overcast,0,2013-05-24 12:08:00
5:53 AM,48.9,42.1,77,30.10,10.0,Calm,Calm,-,N/A,,Overcast,0,2013-05-24 12:53:00
6:53 AM,48.9,39.9,71,30.11,10.0,Calm,Calm,-,N/A,,Overcast,0,2013-05-24 13:53:00
7:53 AM,50.0,39.9,68,30.12,10.0,Calm,Calm,-,N/A,,Overcast,0,2013-05-24 14:53:00
8:45 AM,51.8,39.2,62,30.12,10.0,South,4.6,-,N/A,,Overcast,170,2013-05-24 15:45:00
8:53 AM,51.1,39.9,66,30.12,10.0,Calm,Calm,-,N/A,,Overcast,0,2013-05-24 15:53:00
9:11 AM,51.8,39.2,62,30.12,10.0,Calm,Calm,-,N/A,,Overcast,0,2013-05-24 16:11:00
9:53 AM,53.1,39.0,59,30.12,10.0,Calm,Calm,-,N/A,,Mostly Cloudy,0,2013-05-24 16:53:00
10:53 AM,54.0,37.0,53,30.12,10.0,SSW,4.6,-,N/A,,Overcast,210,2013-05-24 17:53:00
11:53 AM,55.0,39.0,55,30.12,10.0,NW,4.6,-,N/A,,Overcast,310,2013-05-24 18:53:00
12:53 PM,57.0,37.9,49,30.12,10.0,Variable,3.5,-,N/A,,Overcast,0,2013-05-24 19:53:00
1:53 PM,60.1,36.0,41,30.10,10.0,NE,4.6,-,N/A,,Overcast,50,2013-05-24 20:53:00
2:53 PM,61.0,36.0,39,30.09,10.0,Calm,Calm,-,N/A,,Overcast,0,2013-05-24 21:53:00
3:53 PM,61.0,39.0,44,30.09,10.0,Variable,4.6,-,N/A,,Overcast,0,2013-05-24 22:53:00
4:53 PM,59.0,42.1,53,30.09,10.0,WNW,6.9,-,N/A,,Overcast,300,2013-05-24 23:53:00
5:53 PM,60.1,42.1,51,30.08,10.0,NW,5.8,-,N/A,,Overcast,320,2013-05-25 00:53:00
6:53 PM,59.0,42.1,53,30.07,10.0,NNW,9.2,-,N/A,,Scattered Clouds,330,2013-05-25 01:53:00
7:53 PM,57.9,43.0,58,30.08,10.0,NNW,8.1,-,N/A,,Overcast,330,2013-05-25 02:53:00
8:53 PM,55.9,44.1,64,30.08,10.0,NNW,6.9,-,N/A,,Partly Cloudy,340,2013-05-25 03:53:00
9:53 PM,54.0,43.0,66,30.10,10.0,North,5.8,-,N/A,,Mostly Cloudy,10,2013-05-25 04:53:00
10:53 PM,53.1,44.1,71,30.11,10.0,North,5.8,-,N/A,,Overcast,360,2013-05-25 05:53:00
11:53 PM,51.1,43.0,74,30.11,10.0,NNE,4.6,-,N/A,,Mostly Cloudy,20,2013-05-25 06:53:00